| time (UTC) | temp F | wind direction | speed MPH | gust MPH | rain 1hr in | rain 24hr in | rain mn in | humidity % | barometer mb |
| 20260510101710 | 64 | 80 | 5.0 | 13.0 | 0.00 | 0.00 | 0.00 | 56 | 1014.4 |
| 20260510101208 | 64 | 51 | 5.0 | 13.0 | 0.00 | 0.00 | 0.00 | 57 | 1014.4 |
| 20260510100706 | 64 | 50 | 5.0 | 12.0 | 0.00 | 0.00 | 0.00 | 57 | 1014.4 |
| 20260510100207 | 64 | 79 | 5.0 | 12.0 | 0.00 | 0.00 | 0.00 | 58 | 1014.4 |
| 20260510095702 | 63 | 112 | 4.0 | 14.0 | 0.00 | 0.00 | 0.00 | 58 | 1014.4 |
| 20260510095203 | 63 | 77 | 5.0 | 14.0 | 0.00 | 0.00 | 0.00 | 59 | 1014.6 |
| 20260510094703 | 63 | 355 | 6.0 | 14.0 | 0.00 | 0.00 | 0.00 | 59 | 1014.6 |
| 20260510094202 | 63 | 9 | 5.0 | 12.0 | 0.00 | 0.00 | 0.00 | 58 | 1014.6 |
| 20260510093202 | 63 | 67 | 5.0 | 13.0 | 0.00 | 0.00 | 0.00 | 59 | 1014.7 |
| 20260510092203 | 63 | 92 | 4.0 | 11.0 | 0.00 | 0.00 | 0.00 | 60 | 1014.7 |
| 20260510091702 | 63 | 95 | 3.0 | 11.0 | 0.00 | 0.00 | 0.00 | 61 | 1014.8 |
| 20260510091202 | 63 | 18 | 2.0 | 11.0 | 0.00 | 0.00 | 0.00 | 61 | 1014.9 |
| 20260510090703 | 63 | 78 | 3.0 | 10.0 | 0.00 | 0.00 | 0.00 | 61 | 1014.9 |
| 20260510090202 | 62 | 83 | 4.0 | 12.0 | 0.00 | 0.00 | 0.00 | 64 | 1014.8 |
| 20260510085702 | 62 | 142 | 4.0 | 12.0 | 0.00 | 0.00 | 0.00 | 61 | 1014.9 |
| 20260510084702 | 62 | 97 | 2.0 | 10.0 | 0.00 | 0.00 | 0.00 | 63 | 1014.9 |
| 20260510084202 | 61 | 83 | 2.0 | 10.0 | 0.00 | 0.00 | 0.00 | 65 | 1014.8 |
| 20260510083202 | 61 | 84 | 1.0 | 12.0 | 0.00 | 0.00 | 0.00 | 66 | 1015.0 |
| 20260510082703 | 61 | 24 | 1.0 | 12.0 | 0.00 | 0.00 | 0.00 | 67 | 1015.0 |
| 20260510081703 | 60 | 79 | 2.0 | 11.0 | 0.00 | 0.00 | 0.00 | 69 | 1015.0 |
| 20260510081202 | 60 | 355 | 1.0 | 11.0 | 0.00 | 0.00 | 0.00 | 69 | 1014.9 |
| 20260510080706 | 59 | 329 | 2.0 | 9.0 | 0.00 | 0.00 | 0.00 | 70 | 1015.0 |
| 20260510080205 | 59 | 11 | 3.0 | 14.0 | 0.00 | 0.00 | 0.00 | 70 | 1015.1 |
| 20260510075702 | 59 | 64 | 2.0 | 14.0 | 0.00 | 0.00 | 0.00 | 71 | 1015.1 |
| 20260510075202 | 58 | 47 | 2.0 | 12.0 | 0.00 | 0.00 | 0.00 | 72 | 1015.1 |
| 20260510074702 | 58 | 27 | 2.0 | 12.0 | 0.00 | 0.00 | 0.00 | 73 | 1015.2 |
| 20260510073701 | 58 | 47 | 2.0 | 13.0 | 0.00 | 0.00 | 0.00 | 73 | 1015.3 |
| 20260510073201 | 58 | 26 | 2.0 | 15.0 | 0.00 | 0.00 | 0.00 | 73 | 1015.4 |
| 20260510072701 | 57 | 102 | 2.0 | 15.0 | 0.00 | 0.00 | 0.00 | 74 | 1015.4 |
| 20260510071701 | 57 | 105 | 1.0 | 9.0 | 0.00 | 0.00 | 0.00 | 75 | 1015.2 |
| 20260510070659 | 57 | 42 | 1.0 | 5.0 | 0.00 | 0.00 | 0.00 | 78 | 1015.5 |
| 20260510070152 | 56 | 92 | 1.0 | 10.0 | 0.00 | 0.00 | 0.00 | 78 | 1015.4 |
| 20260510065653 | 56 | 81 | 1.0 | 10.0 | 0.00 | 0.00 | 0.00 | 79 | 1015.4 |
| 20260510065151 | 55 | 114 | 1.0 | 10.0 | 0.00 | 0.00 | 0.00 | 81 | 1015.3 |
| 20260510064651 | 55 | 346 | 1.0 | 11.0 | 0.00 | 0.00 | 0.00 | 81 | 1015.4 |
| 20260510064149 | 55 | 25 | 1.0 | 11.0 | 0.00 | 0.00 | 0.00 | 82 | 1015.3 |
| 20260510063649 | 54 | 9 | 1.0 | 8.0 | 0.00 | 0.00 | 0.00 | 83 | 1015.3 |
| 20260510063149 | 54 | 0 | 1.0 | 8.0 | 0.00 | 0.00 | 0.00 | 84 | 1015.3 |
| 20260510062649 | 54 | 350 | 1.0 | 8.0 | 0.00 | 0.00 | 0.00 | 84 | 1015.5 |
| 20260510062143 | 53 | 19 | 0.0 | 7.0 | 0.00 | 0.00 | 0.00 | 85 | 1015.6 |
| 20260510061643 | 53 | 338 | 1.0 | 7.0 | 0.00 | 0.00 | 0.00 | 85 | 1015.5 |
| 20260510061143 | 53 | 350 | 1.0 | 9.0 | 0.00 | 0.00 | 0.00 | 86 | 1015.5 |
| 20260510060641 | 53 | 28 | 1.0 | 9.0 | 0.00 | 0.00 | 0.00 | 86 | 1015.5 |
| 20260510060139 | 53 | 46 | 0.0 | 5.0 | 0.00 | 0.00 | 0.00 | 86 | 1015.4 |
| 20260510055638 | 53 | 0 | 0.0 | 7.0 | 0.00 | 0.00 | 0.00 | 87 | 1015.3 |
| 20260510055139 | 52 | 13 | 0.0 | 7.0 | 0.00 | 0.00 | 0.00 | 87 | 1015.4 |
| 20260510054639 | 52 | 336 | 0.0 | 6.0 | 0.00 | 0.00 | 0.00 | 88 | 1015.4 |
| 20260510054139 | 52 | 5 | 1.0 | 8.0 | 0.00 | 0.00 | 0.00 | 88 | 1015.4 |
| 20260510053637 | 52 | 355 | 1.0 | 8.0 | 0.00 | 0.00 | 0.00 | 88 | 1015.2 |
| 20260510053137 | 52 | 13 | 1.0 | 8.0 | 0.00 | 0.00 | 0.00 | 89 | 1015.4 |
| 20260510052635 | 52 | 19 | 1.0 | 9.0 | 0.00 | 0.00 | 0.00 | 89 | 1015.5 |
| 20260510052134 | 52 | 5 | 1.0 | 9.0 | 0.00 | 0.00 | 0.00 | 89 | 1015.5 |
| 20260510051635 | 51 | 355 | 1.0 | 8.0 | 0.00 | 0.00 | 0.00 | 89 | 1015.6 |
| 20260510051132 | 51 | 342 | 0.0 | 5.0 | 0.00 | 0.00 | 0.00 | 89 | 1015.6 |
| 20260510050631 | 51 | 350 | 0.0 | 6.0 | 0.00 | 0.00 | 0.00 | 89 | 1015.5 |
| 20260510050131 | 51 | 348 | 0.0 | 8.0 | 0.00 | 0.00 | 0.00 | 89 | 1015.5 |
| 20260510045631 | 51 | 332 | 0.0 | 8.0 | 0.00 | 0.00 | 0.00 | 88 | 1015.5 |
| 20260510045130 | 51 | 9 | 0.0 | 6.0 | 0.00 | 0.00 | 0.00 | 88 | 1015.5 |
| 20260510044130 | 51 | 355 | 0.0 | 8.0 | 0.00 | 0.00 | 0.00 | 88 | 1015.4 |
| 20260510043631 | 51 | 355 | 0.0 | 8.0 | 0.00 | 0.00 | 0.00 | 88 | 1015.4 |
| 20260510042629 | 51 | 5 | 0.0 | 7.0 | 0.00 | 0.00 | 0.00 | 87 | 1015.4 |
| 20260510041629 | 51 | 355 | 1.0 | 8.0 | 0.00 | 0.00 | 0.00 | 87 | 1015.3 |
| 20260510041129 | 51 | 28 | 1.0 | 8.0 | 0.00 | 0.00 | 0.00 | 87 | 1015.3 |
| 20260510040628 | 51 | 0 | 0.0 | 5.0 | 0.00 | 0.00 | 0.00 | 88 | 1015.5 |
| 20260510035627 | 51 | 16 | 0.0 | 4.0 | 0.00 | 0.00 | 0.00 | 88 | 1015.4 |
| 20260510035127 | 51 | 16 | 0.0 | 4.0 | 0.00 | 0.00 | 0.00 | 87 | 1015.4 |
| 20260510034624 | 51 | 11 | 0.0 | 4.0 | 0.00 | 0.00 | 0.00 | 87 | 1015.2 |
| 20260510033624 | 51 | 15 | 0.0 | 4.0 | 0.00 | 0.00 | 0.00 | 87 | 1015.4 |
| 20260510033122 | 51 | 12 | 0.0 | 4.0 | 0.00 | 0.00 | 0.00 | 87 | 1015.4 |
| 20260510032623 | 51 | 15 | 0.0 | 4.0 | 0.00 | 0.00 | 0.00 | 86 | 1015.4 |
| 20260510032123 | 51 | 16 | 0.0 | 0.0 | 0.00 | 0.00 | 0.00 | 86 | 1015.5 |
| 20260510031621 | 51 | 15 | 0.0 | 0.0 | 0.00 | 0.00 | 0.00 | 86 | 1015.6 |
| 20260510031121 | 51 | 15 | 0.0 | 4.0 | 0.00 | 0.00 | 0.00 | 86 | 1015.6 |
| 20260510030620 | 51 | 17 | 0.0 | 4.0 | 0.00 | 0.00 | 0.00 | 86 | 1015.5 |
| 20260510025621 | 51 | 14 | 0.0 | 0.0 | 0.00 | 0.00 | 0.00 | 86 | 1015.5 |
| 20260510025119 | 51 | 13 | 0.0 | 0.0 | 0.00 | 0.00 | 0.00 | 86 | 1015.6 |
| 20260510024618 | 51 | 18 | 0.0 | 2.0 | 0.00 | 0.00 | 0.00 | 86 | 1015.6 |
| 20260510023618 | 51 | 15 | 0.0 | 0.0 | 0.00 | 0.00 | 0.00 | 85 | 1015.6 |
| 20260510023118 | 51 | 15 | 0.0 | 0.0 | 0.00 | 0.00 | 0.00 | 85 | 1015.5 |
| 20260510022618 | 51 | 16 | 0.0 | 0.0 | 0.00 | 0.00 | 0.00 | 85 | 1015.6 |
| 20260510022118 | 51 | 15 | 0.0 | 0.0 | 0.00 | 0.00 | 0.00 | 85 | 1015.7 |
| 20260510021116 | 51 | 15 | 0.0 | 0.0 | 0.00 | 0.00 | 0.00 | 84 | 1015.7 |
| 20260510020616 | 51 | 15 | 0.0 | 0.0 | 0.00 | 0.00 | 0.00 | 84 | 1015.6 |
| 20260510020117 | 51 | 15 | 0.0 | 0.0 | 0.00 | 0.00 | 0.00 | 83 | 1015.7 |
| 20260510015617 | 51 | 15 | 0.0 | 0.0 | 0.00 | 0.00 | 0.00 | 83 | 1015.6 |
| 20260510015117 | 51 | 15 | 0.0 | 0.0 | 0.00 | 0.00 | 0.00 | 82 | 1015.7 |
| 20260510014617 | 51 | 15 | 0.0 | 0.0 | 0.00 | 0.00 | 0.00 | 82 | 1015.6 |
| 20260510014113 | 51 | 15 | 0.0 | 0.0 | 0.00 | 0.00 | 0.00 | 82 | 1015.8 |
| 20260510013612 | 51 | 14 | 0.0 | 0.0 | 0.00 | 0.00 | 0.00 | 82 | 1015.8 |
| 20260510012610 | 51 | 11 | 0.0 | 0.0 | 0.00 | 0.00 | 0.00 | 81 | 1015.8 |
| 20260510012109 | 51 | 9 | 0.0 | 0.0 | 0.00 | 0.00 | 0.00 | 81 | 1015.8 |
| 20260510011609 | 52 | 10 | 0.0 | 0.0 | 0.00 | 0.00 | 0.00 | 80 | 1015.9 |
| 20260510011108 | 52 | 10 | 0.0 | 0.0 | 0.00 | 0.00 | 0.00 | 80 | 1015.7 |
| 20260510010609 | 52 | 10 | 0.0 | 0.0 | 0.00 | 0.00 | 0.00 | 80 | 1015.9 |
| 20260510010109 | 52 | 10 | 0.0 | 0.0 | 0.00 | 0.00 | 0.00 | 79 | 1016.0 |
| 20260510005608 | 52 | 10 | 0.0 | 0.0 | 0.00 | 0.00 | 0.00 | 79 | 1015.9 |
| 20260510005107 | 52 | 10 | 0.0 | 0.0 | 0.00 | 0.00 | 0.00 | 79 | 1016.0 |
| 20260510004607 | 53 | 10 | 0.0 | 0.0 | 0.00 | 0.00 | 0.00 | 78 | 1015.9 |
| 20260510004107 | 53 | 10 | 0.0 | 0.0 | 0.00 | 0.00 | 0.00 | 78 | 1016.0 |
| 20260510003606 | 53 | 10 | 0.0 | 0.0 | 0.00 | 0.00 | 0.00 | 78 | 1016.0 |
| 20260510003105 | 53 | 9 | 0.0 | 0.0 | 0.00 | 0.00 | 0.00 | 78 | 1016.0 |
| 20260510002604 | 53 | 9 | 0.0 | 0.0 | 0.00 | 0.00 | 0.00 | 78 | 1016.0 |
| 20260510002104 | 53 | 9 | 0.0 | 0.0 | 0.00 | 0.00 | 0.00 | 78 | 1016.1 |
| 20260510001604 | 53 | 9 | 0.0 | 0.0 | 0.00 | 0.00 | 0.00 | 77 | 1016.0 |
| 20260510001104 | 53 | 9 | 0.0 | 0.0 | 0.00 | 0.00 | 0.00 | 77 | 1016.1 |
| 20260509235604 | 53 | 9 | 0.0 | 0.0 | 0.00 | 0.00 | 0.00 | 77 | 1016.2 |
| 20260509235107 | 53 | 9 | 0.0 | 0.0 | 0.00 | 0.00 | 0.00 | 76 | 1016.3 |
| 20260509234605 | 53 | 9 | 0.0 | 0.0 | 0.00 | 0.00 | 0.00 | 76 | 1016.2 |
| 20260509234105 | 53 | 9 | 0.0 | 0.0 | 0.00 | 0.00 | 0.00 | 75 | 1016.3 |
| 20260509233602 | 54 | 9 | 0.0 | 0.0 | 0.00 | 0.00 | 0.00 | 75 | 1016.2 |
| 20260509232602 | 54 | 9 | 0.0 | 0.0 | 0.00 | 0.00 | 0.00 | 75 | 1016.2 |
| 20260509232102 | 54 | 9 | 0.0 | 0.0 | 0.00 | 0.00 | 0.00 | 74 | 1016.3 |
| 20260509231603 | 54 | 9 | 0.0 | 0.0 | 0.00 | 0.00 | 0.00 | 74 | 1016.2 |
| 20260509231102 | 54 | 9 | 0.0 | 0.0 | 0.00 | 0.00 | 0.00 | 74 | 1016.2 |
| 20260509230603 | 55 | 9 | 0.0 | 0.0 | 0.00 | 0.00 | 0.00 | 73 | 1016.3 |
| 20260509224601 | 55 | 13 | 0.0 | 0.0 | 0.00 | 0.00 | 0.00 | 72 | 1016.2 |
| 20260509224103 | 55 | 12 | 0.0 | 0.0 | 0.00 | 0.00 | 0.00 | 72 | 1016.2 |
| 20260509223605 | 55 | 12 | 0.0 | 0.0 | 0.00 | 0.00 | 0.00 | 73 | 1016.2 |
| 20260509223102 | 55 | 12 | 0.0 | 0.0 | 0.00 | 0.00 | 0.00 | 72 | 1016.2 |
| 20260509222602 | 55 | 12 | 0.0 | 0.0 | 0.00 | 0.00 | 0.00 | 72 | 1016.3 |
| 20260509222102 | 56 | 12 | 0.0 | 0.0 | 0.00 | 0.00 | 0.00 | 72 | 1016.2 |
| 20260509221602 | 56 | 12 | 0.0 | 0.0 | 0.00 | 0.00 | 0.00 | 71 | 1016.4 |
| 20260509221102 | 56 | 12 | 0.0 | 0.0 | 0.00 | 0.00 | 0.00 | 70 | 1016.4 |
| 20260509220611 | 57 | 12 | 0.0 | 0.0 | 0.00 | 0.00 | 0.00 | 68 | 1016.5 |
| 20260509215602 | 57 | 12 | 0.0 | 0.0 | 0.00 | 0.00 | 0.00 | 68 | 1016.4 |
| 20260509215102 | 57 | 12 | 0.0 | 0.0 | 0.00 | 0.00 | 0.00 | 68 | 1016.4 |
| 20260509214602 | 58 | 12 | 0.0 | 0.0 | 0.00 | 0.00 | 0.00 | 67 | 1016.3 |
| 20260509214102 | 58 | 11 | 0.0 | 0.0 | 0.00 | 0.00 | 0.00 | 66 | 1016.2 |
| 20260509213602 | 58 | 11 | 0.0 | 0.0 | 0.00 | 0.00 | 0.00 | 66 | 1016.3 |
| 20260509212601 | 58 | 11 | 0.0 | 0.0 | 0.00 | 0.00 | 0.00 | 66 | 1016.3 |
| 20260509211558 | 59 | 12 | 0.0 | 0.0 | 0.00 | 0.00 | 0.00 | 64 | 1016.3 |
| 20260509211059 | 59 | 11 | 0.0 | 0.0 | 0.00 | 0.00 | 0.00 | 64 | 1016.3 |
| 20260509205555 | 59 | 12 | 0.0 | 0.0 | 0.00 | 0.00 | 0.00 | 63 | 1016.2 |
| 20260509205054 | 60 | 11 | 0.0 | 0.0 | 0.00 | 0.00 | 0.00 | 63 | 1016.2 |
| 20260509204552 | 60 | 13 | 0.0 | 0.0 | 0.00 | 0.00 | 0.00 | 63 | 1016.2 |
| 20260509203048 | 60 | 11 | 0.0 | 2.0 | 0.00 | 0.00 | 0.00 | 62 | 1016.5 |
| 20260509202046 | 61 | 18 | 0.0 | 0.0 | 0.00 | 0.00 | 0.00 | 61 | 1016.5 |
| 20260509201546 | 61 | 18 | 0.0 | 0.0 | 0.00 | 0.00 | 0.00 | 61 | 1016.7 |
| 20260509201044 | 62 | 19 | 0.0 | 0.0 | 0.00 | 0.00 | 0.00 | 60 | 1016.6 |
| 20260509200040 | 62 | 15 | 0.0 | 0.0 | 0.00 | 0.00 | 0.00 | 60 | 1016.4 |
| 20260509195539 | 62 | 15 | 0.0 | 0.0 | 0.00 | 0.00 | 0.00 | 59 | 1016.3 |
| 20260509195038 | 62 | 15 | 0.0 | 0.0 | 0.00 | 0.00 | 0.00 | 59 | 1016.1 |
| 20260509194037 | 63 | 15 | 0.0 | 3.0 | 0.00 | 0.00 | 0.00 | 57 | 1016.2 |
| 20260509193536 | 63 | 15 | 0.0 | 3.0 | 0.00 | 0.00 | 0.00 | 57 | 1016.2 |
| 20260509193034 | 64 | 14 | 0.0 | 0.0 | 0.00 | 0.00 | 0.00 | 57 | 1016.2 |
| 20260509191533 | 64 | 18 | 0.0 | 0.0 | 0.00 | 0.00 | 0.00 | 57 | 1016.1 |
| 20260509190530 | 65 | 18 | 0.0 | 0.0 | 0.00 | 0.00 | 0.00 | 55 | 1016.0 |
| 20260509185530 | 66 | 22 | 0.0 | 0.0 | 0.00 | 0.00 | 0.00 | 54 | 1016.1 |
| 20260509185030 | 66 | 22 | 0.0 | 0.0 | 0.00 | 0.00 | 0.00 | 53 | 1016.0 |
| 20260509184530 | 66 | 20 | 0.0 | 0.0 | 0.00 | 0.00 | 0.00 | 53 | 1016.1 |
| 20260509184029 | 67 | 21 | 0.0 | 0.0 | 0.00 | 0.00 | 0.00 | 52 | 1016.1 |
| 20260509183530 | 67 | 22 | 0.0 | 0.0 | 0.00 | 0.00 | 0.00 | 52 | 1015.9 |
| 20260509183032 | 67 | 22 | 0.0 | 0.0 | 0.00 | 0.00 | 0.00 | 51 | 1016.0 |
| 20260509182530 | 68 | 22 | 0.0 | 0.0 | 0.00 | 0.00 | 0.00 | 51 | 1016.0 |
| 20260509182030 | 68 | 22 | 0.0 | 0.0 | 0.00 | 0.00 | 0.00 | 52 | 1016.0 |
| 20260509181530 | 68 | 22 | 0.0 | 2.0 | 0.00 | 0.00 | 0.00 | 50 | 1015.9 |
| 20260509181030 | 69 | 22 | 0.0 | 2.0 | 0.00 | 0.00 | 0.00 | 49 | 1015.8 |
| 20260509180529 | 69 | 21 | 0.0 | 0.0 | 0.00 | 0.00 | 0.00 | 49 | 1015.7 |
| 20260509180030 | 69 | 22 | 0.0 | 0.0 | 0.00 | 0.00 | 0.00 | 48 | 1015.7 |
| 20260509175530 | 69 | 20 | 0.0 | 0.0 | 0.00 | 0.00 | 0.00 | 47 | 1015.6 |
| 20260509175031 | 69 | 19 | 0.0 | 0.0 | 0.00 | 0.00 | 0.00 | 48 | 1015.6 |
| 20260509174530 | 69 | 19 | 0.0 | 0.0 | 0.00 | 0.00 | 0.00 | 47 | 1015.5 |
| 20260509174030 | 69 | 19 | 0.0 | 0.0 | 0.00 | 0.00 | 0.00 | 46 | 1015.4 |
| 20260509173529 | 69 | 21 | 0.0 | 0.0 | 0.00 | 0.00 | 0.00 | 47 | 1015.5 |
| 20260509173030 | 69 | 22 | 0.0 | 0.0 | 0.00 | 0.00 | 0.00 | 47 | 1015.4 |
| 20260509172530 | 69 | 22 | 0.0 | 0.0 | 0.00 | 0.00 | 0.00 | 47 | 1015.5 |
| 20260509171531 | 69 | 20 | 0.0 | 4.0 | 0.00 | 0.00 | 0.00 | 48 | 1015.4 |
| 20260509170030 | 70 | 15 | 0.0 | 2.0 | 0.00 | 0.00 | 0.00 | 47 | 1015.6 |
| 20260509165530 | 70 | 13 | 0.0 | 1.0 | 0.00 | 0.00 | 0.00 | 46 | 1015.5 |
| 20260509165029 | 70 | 11 | 0.0 | 5.0 | 0.00 | 0.00 | 0.00 | 48 | 1015.5 |
| 20260509164529 | 70 | 5 | 0.0 | 5.0 | 0.00 | 0.00 | 0.00 | 46 | 1015.6 |
| 20260509164031 | 70 | 59 | 0.0 | 4.0 | 0.00 | 0.00 | 0.00 | 46 | 1015.6 |
| 20260509163530 | 70 | 80 | 0.0 | 4.0 | 0.00 | 0.00 | 0.00 | 45 | 1015.5 |
| 20260509163028 | 71 | 134 | 0.0 | 0.0 | 0.00 | 0.00 | 0.00 | 42 | 1015.6 |
| 20260509162526 | 71 | 134 | 0.0 | 0.0 | 0.00 | 0.00 | 0.00 | 43 | 1015.6 |
| 20260509162024 | 70 | 134 | 0.0 | 0.0 | 0.00 | 0.00 | 0.00 | 45 | 1015.5 |
| 20260509161523 | 70 | 134 | 0.0 | 0.0 | 0.00 | 0.00 | 0.00 | 44 | 1015.6 |
| 20260509161021 | 70 | 134 | 0.0 | 0.0 | 0.00 | 0.00 | 0.00 | 44 | 1015.7 |
| 20260509160023 | 70 | 138 | 0.0 | 0.0 | 0.00 | 0.00 | 0.00 | 43 | 1015.7 |
| 20260509155517 | 70 | 138 | 0.0 | 0.0 | 0.00 | 0.00 | 0.00 | 46 | 1015.7 |
| 20260509154517 | 70 | 140 | 0.0 | 3.0 | 0.00 | 0.00 | 0.00 | 44 | 1015.8 |
| 20260509154010 | 71 | 156 | 0.0 | 3.0 | 0.00 | 0.00 | 0.00 | 44 | 1015.7 |
| 20260509153508 | 71 | 160 | 0.0 | 5.0 | 0.00 | 0.00 | 0.00 | 46 | 1015.6 |
| 20260509153008 | 71 | 161 | 0.0 | 5.0 | 0.00 | 0.00 | 0.00 | 45 | 1015.8 |
| 20260509152003 | 71 | 55 | 1.0 | 6.0 | 0.00 | 0.00 | 0.00 | 46 | 1015.9 |
| 20260509151508 | 70 | 34 | 0.0 | 5.0 | 0.00 | 0.00 | 0.00 | 46 | 1015.9 |
| 20260509150500 | 71 | 40 | 0.0 | 6.0 | 0.00 | 0.00 | 0.00 | 46 | 1015.9 |
| 20260509145500 | 71 | 90 | 0.0 | 3.0 | 0.00 | 0.00 | 0.00 | 46 | 1016.0 |
| 20260509144455 | 71 | 92 | 0.0 | 0.0 | 0.00 | 0.00 | 0.00 | 44 | 1015.9 |
| 20260509143951 | 71 | 93 | 0.0 | 0.0 | 0.00 | 0.00 | 0.00 | 46 | 1016.1 |
| 20260509143451 | 71 | 93 | 0.0 | 2.0 | 0.00 | 0.00 | 0.00 | 44 | 1016.1 |
| 20260509142951 | 71 | 93 | 0.0 | 2.0 | 0.00 | 0.00 | 0.00 | 45 | 1016.1 |
| 20260509141952 | 70 | 82 | 0.0 | 1.0 | 0.00 | 0.00 | 0.00 | 46 | 1016.2 |
| 20260509140950 | 69 | 80 | 0.0 | 4.0 | 0.00 | 0.00 | 0.00 | 46 | 1016.3 |
| 20260509140448 | 69 | 78 | 0.0 | 4.0 | 0.00 | 0.00 | 0.00 | 46 | 1016.3 |
| 20260509135948 | 69 | 69 | 0.0 | 3.0 | 0.00 | 0.00 | 0.00 | 46 | 1016.3 |
| 20260509134945 | 70 | 65 | 1.0 | 5.0 | 0.00 | 0.00 | 0.00 | 46 | 1016.3 |
| 20260509134446 | 71 | 69 | 1.0 | 8.0 | 0.00 | 0.00 | 0.00 | 45 | 1016.5 |
| 20260509133943 | 71 | 71 | 1.0 | 8.0 | 0.00 | 0.00 | 0.00 | 45 | 1016.5 |
| 20260509133442 | 71 | 105 | 0.0 | 0.0 | 0.00 | 0.00 | 0.00 | 46 | 1016.5 |
| 20260509132942 | 70 | 105 | 0.0 | 0.0 | 0.00 | 0.00 | 0.00 | 47 | 1016.6 |
| 20260509132439 | 69 | 105 | 0.0 | 1.0 | 0.00 | 0.00 | 0.00 | 47 | 1016.6 |
| 20260509131940 | 69 | 105 | 0.0 | 1.0 | 0.00 | 0.00 | 0.00 | 47 | 1016.9 |
| 20260509131437 | 69 | 161 | 0.0 | 0.0 | 0.00 | 0.00 | 0.00 | 47 | 1016.9 |
| 20260509130937 | 69 | 162 | 0.0 | 0.0 | 0.00 | 0.00 | 0.00 | 50 | 1017.0 |
| 20260509130437 | 68 | 161 | 0.0 | 4.0 | 0.00 | 0.00 | 0.00 | 48 | 1017.2 |
| 20260509125437 | 69 | 128 | 0.0 | 0.0 | 0.00 | 0.00 | 0.00 | 48 | 1017.1 |
| 20260509124934 | 69 | 109 | 0.0 | 0.0 | 0.00 | 0.00 | 0.00 | 48 | 1017.2 |
| 20260509124435 | 69 | 107 | 0.0 | 0.0 | 0.00 | 0.00 | 0.00 | 47 | 1017.1 |
| 20260509123934 | 69 | 88 | 0.0 | 0.0 | 0.00 | 0.00 | 0.00 | 47 | 1017.2 |
| 20260509123434 | 69 | 88 | 0.0 | 8.0 | 0.00 | 0.00 | 0.00 | 47 | 1017.3 |
| 20260509122431 | 69 | 68 | 0.0 | 6.0 | 0.00 | 0.00 | 0.00 | 49 | 1017.3 |
| 20260509121931 | 68 | 84 | 0.0 | 6.0 | 0.00 | 0.00 | 0.00 | 49 | 1017.4 |
| 20260509121430 | 68 | 98 | 0.0 | 3.0 | 0.00 | 0.00 | 0.00 | 48 | 1017.6 |
| 20260509120929 | 68 | 159 | 0.0 | 2.0 | 0.00 | 0.00 | 0.00 | 49 | 1017.5 |
| 20260509120429 | 68 | 163 | 0.0 | 2.0 | 0.00 | 0.00 | 0.00 | 49 | 1017.6 |
| 20260509115929 | 68 | 28 | 0.0 | 5.0 | 0.00 | 0.00 | 0.00 | 50 | 1017.5 |
| 20260509115432 | 68 | 17 | 0.0 | 5.0 | 0.00 | 0.00 | 0.00 | 49 | 1017.6 |
| 20260509114929 | 68 | 28 | 0.0 | 4.0 | 0.00 | 0.00 | 0.00 | 48 | 1017.5 |
| 20260509114427 | 69 | 27 | 1.0 | 6.0 | 0.00 | 0.00 | 0.00 | 49 | 1017.7 |
| 20260509113928 | 69 | 9 | 1.0 | 6.0 | 0.00 | 0.00 | 0.00 | 49 | 1017.7 |
| 20260509113427 | 69 | 11 | 0.0 | 6.0 | 0.00 | 0.00 | 0.00 | 51 | 1017.6 |
| 20260509112425 | 69 | 115 | 1.0 | 7.0 | 0.00 | 0.00 | 0.00 | 48 | 1017.9 |
| 20260509111926 | 69 | 41 | 0.0 | 5.0 | 0.00 | 0.00 | 0.00 | 48 | 1017.8 |
| 20260509111425 | 69 | 45 | 0.0 | 5.0 | 0.00 | 0.00 | 0.00 | 47 | 1018.0 |
| 20260509110925 | 69 | 72 | 0.0 | 5.0 | 0.00 | 0.00 | 0.00 | 50 | 1018.0 |
| 20260509110426 | 68 | 73 | 1.0 | 8.0 | 0.00 | 0.00 | 0.00 | 50 | 1018.1 |
| 20260509105923 | 68 | 123 | 1.0 | 8.0 | 0.00 | 0.00 | 0.00 | 49 | 1018.1 |
| 20260509105425 | 68 | 348 | 0.0 | 6.0 | 0.00 | 0.00 | 0.00 | 51 | 1018.1 |
| 20260509104923 | 68 | 37 | 0.0 | 6.0 | 0.00 | 0.00 | 0.00 | 49 | 1018.1 |
| 20260509104424 | 68 | 27 | 0.0 | 6.0 | 0.00 | 0.00 | 0.00 | 50 | 1018.2 |
| 20260509103921 | 68 | 18 | 1.0 | 8.0 | 0.00 | 0.00 | 0.00 | 49 | 1018.3 |
| 20260509103421 | 68 | 355 | 1.0 | 8.0 | 0.00 | 0.00 | 0.00 | 50 | 1018.3 |
| 20260509102420 | 68 | 52 | 0.0 | 4.0 | 0.00 | 0.00 | 0.00 | 52 | 1018.4 |
| 20260509101917 | 67 | 105 | 0.0 | 4.0 | 0.00 | 0.00 | 0.00 | 51 | 1018.4 |